STARLINK-2608 (48365 NORAD) Tracking and Keplerian Element Data

This shows tracking and keplerian element data for the satellite.

Feedback or suggestion? Click here.




ElementValue
Catalog48365
NameSTARLINK-2608
Epoch Orbit1387
Epoch Day214.61972688
Epoch Year2021
RAAN338.7305
Inclination53.0556
Eccentricity0.0001126
Argument of Perigee113.2165
Mean Anonmoly246.8943
Mean Motion15.06391302
Decay Rate-1.497E-05
L11 48365U 21038N 21214.61972688 -.00001497 00000-0 -81665-4 0 9990
L22 48365 53.0556 338.7305 0001126 113.2165 246.8943 15.06391302 13875

Live tracking and technical data element details for STARLINK-2608 (NORAD 48365). STARLINK-2608 can be tracked NOW for your location showing map with azimuth and elevation plus other details from your city location.

Track the satellite on the map from your city or location and see movement details for azimuth, elevation, latitude, longitude, range, height, and movement on the map or in text.







IsCatalogInMostPopularTable: catalog: 48365, numindb: 29
Update: records affected: 1



GetName: 48365 STARLINK-2608

Hit Count: updated at: Tue, 03 Aug 2021 23:09:11 GMT